This is the latest recevied weather packets stored in our database for station/object N5COP-13. If no packets are shown the sender has not sent any weather packets the latest 1 day(s).
| Time | Temp. | Humidity | Pressure | Rain* | Wind** | Luminosity | Snow |
|---|---|---|---|---|---|---|---|
| 1836274790 | 21.11° C | 57% | 1018.7 hPa | 0 mm | 3.13 m/s, 190° | 0 W/m² | - |
| 1836274489 | 21.11° C | 57% | 1018.9 hPa | 0 mm | 3.13 m/s, 189° | 0 W/m² | - |
| 1836274342 | 21.11° C | 57% | 1018.9 hPa | 0 mm | 3.13 m/s, 180° | 0 W/m² | - |
| 1836274186 | 20.56° C | 57% | 1018.8 hPa | 0 mm | 2.68 m/s, 160° | 0 W/m² | - |
| 1836273880 | 20.56° C | 57% | 1018.7 hPa | 0 mm | 2.68 m/s, 189° | 0 W/m² | - |
| 1778047426 | 6.67° C | 72% | 1013.2 hPa | 0 mm | 3.58 m/s, 75° | 0 W/m² | - |
| 1778047123 | 6.67° C | 71% | 1012.8 hPa | 0 mm | 1.79 m/s, 73° | 0 W/m² | - |
| 1778046820 | 7.22° C | 70% | 1012.7 hPa | 0 mm | 4.47 m/s, 68° | 0 W/m² | - |
| 1778046517 | 7.22° C | 70% | 1012.7 hPa | 0 mm | 2.68 m/s, 66° | 0 W/m² | - |
| 1778046214 | 7.22° C | 69% | 1012.5 hPa | 0 mm | 4.47 m/s, 70° | 0 W/m² | - |
| 1778045910 | 7.22° C | 69% | 1012.4 hPa | 0 mm | 5.36 m/s, 82° | 0 W/m² | - |
| 1778045609 | 7.78° C | 68% | 1012.2 hPa | 0 mm | 5.81 m/s, 86° | 0 W/m² | - |
| 1778045307 | 7.78° C | 67% | 1011.8 hPa | 0 mm | 5.81 m/s, 87° | 0 W/m² | - |
| 1778045005 | 7.78° C | 67% | 1012 hPa | 0 mm | 7.15 m/s, 81° | 0 W/m² | - |
| 1778044702 | 7.78° C | 66% | 1012 hPa | 0 mm | 4.92 m/s, 81° | 0 W/m² | - |
| 1778044398 | 8.33° C | 65% | 1012.2 hPa | 0 mm | 4.47 m/s, 74° | 0 W/m² | - |
| 1778044096 | 8.33° C | 65% | 1012 hPa | 0 mm | 5.81 m/s, 78° | 0 W/m² | - |
| 1778043793 | 8.33° C | 65% | 1011.8 hPa | 0 mm | 5.81 m/s, 89° | 0 W/m² | - |
| 1778043490 | 8.33° C | 64% | 1011.6 hPa | 0 mm | 5.81 m/s, 96° | 0 W/m² | - |
| 1778043187 | 8.33° C | 64% | 1011.8 hPa | 0 mm | 5.36 m/s, 93° | 0 W/m² | - |
| 1778042884 | 8.89° C | 64% | 1012 hPa | 0 mm | 6.71 m/s, 105° | 0 W/m² | - |
| 1778042581 | 8.89° C | 63% | 1011.8 hPa | 0 mm | 5.81 m/s, 93° | 0 W/m² | - |
| 1778042278 | 8.89° C | 63% | 1011.7 hPa | 0 mm | 4.47 m/s, 87° | 0 W/m² | - |
| 1778041975 | 8.89° C | 63% | 1011.8 hPa | 0 mm | 4.47 m/s, 87° | 0 W/m² | - |
| 1778041674 | 8.89° C | 62% | 1012 hPa | 0 mm | 4.02 m/s, 87° | 0 W/m² | - |
* Rain latest hour (hover to see other rain measurements)
** Current wind speed in m/s (hover to see current wind gust speed)